SCP
0 0 0 0 0 0 -0 -0 0 0 0 0 0 0 0 0 0 0 0 0 0 0 0 0 0 0 0 0 0 0 0 0 0 0 0 0 0 0 0 0 0 0 0 0 0
0 0 0 0 0 0 0 0 0 0 0 0 0 0 0 0 0 0 0 0 0 0 0 0 0 0 0 0 0 0 0 0 0 0 0 0 0 0 0 0 0 0 0 0 0
0 0 0 0 0 0 0 0 0 0 0 0 0 0 0 0 0 0 0 0 0 0 0 0 0 0 0 0 0 0 0 0 0 0 0 0 0 0 0 0 0 0 0 0 0
0 0 0 0 0 0 0 0 0 0 0 0 0 0 0 0 0 0 0 0 0 0 0 0 0 0 0 0 0 0 0 0 0 0 0 0 0 0 0 0 0 0 0 0 0
0 0 0 0 0 0 0 0 0 0 0 0 0 0 0 0 0 0 0 0 0 0 0 0 0 0 0 0 0 0 0 0 0 0 0 0 -0 0 0 0 0 0 0 0 0
0 0 0 0 0 0 0 0 0 0 0 0 0 0 0 0 0 0 0 0 0 0 0 0 0 0 0 0 0 0 0 0 0 0 0 0 0 0 -0 0 0 0 0 0 0
0 0 0 0 0 0 0 0 0 0 0 0 0 0 0 0 0 0 0 0 0 0 0 0 0 0 0 0 0 0 0 0 0 0 0 0 0 0 -0 -0 -0 0 0 0 0
0 0 0 0 0 0 0 0 0 0 0 0 0 0 0 0 0 0 0 0 0 0 0 0 0 0 0 0 0 0 0 0 0 0 0 0 -0 0 0 0 0 0 0 0 0
0 0 0 0 0 0 0 0 0 0 0 0 0 0 0 0 0 0 0 0 0 0 0 0 0 0 0 0 0 0 0 0 0 0 0 0 -0 0 0 0 0 0 0 0 0
0 0 0 0 0 0 0 0 0 0 0 0 0 0 0 0 0 0 0 0 0 0 0 0 0 0 0 0 0 0 0 0 0 0 0 0 0 0 0 0 0 0 0 0 0
0 0 0 0 0 0 0 0 0 0 0 0 0 0 0 0 0 0 0 0 0 0 0 0 0 0 0 0 0 0 0 0 0 0 0 0 0 0 0 0 0 0 0 0 0
0 0 0 0 0 0 0 0 0 0 0 0 0 0 0 0 0 0 0 0 0 0 0 0 0 0 0 0 0 0 0 0 0 0 0 0 0 0 0 0 0 0 0 0 0
-0 0 0 0 0 0 0 0 0 0 0 0 0 0 0 0 0 0 0 0 0 0 0 0 0 0 0 0 0 0 0 0 0 0 0 0 0 -0 -0 0 0 0 0 0 0
0 0 0 0 0 0 -0 0 0 0 0 0 0 0 0 0 0 0 0 0 0 0 0 0 0 0 0 0 0 0 0 0 0 0 0 0 0 0 0 0 0 0 0 0 0
-0 -0 0 0 0 0 0 0 0 0 0 0 0 0 0 0 0 0 0 0 0 0 0 0 0 0 0 0 0 0 0 0 0 0 0 0 0 0 0 0 0 0 0 0 0
-0 0 0 -0 -0 0 0 0 0 0 0 0 0 0 0 0 0 0 0 0 0 0 0 0 0 0 0 0 0 0 0 0 0 0 0 0 0 0 0 0 0 0 0 0 0
0 -0 -0 0 0 0 0 0 0 0 0 0 0 0 0 0 0 0 0 0 0 0 0 0 0 0 0 0 0 0 0 0 0 0 0 0 0 0 0 0 0 0 0 0 0
-0 -0 0 0 0 0 0 0 0 0 0 0 0 0 0 0 0 0 0 0 0 0 0 0 0 0 0 0 0 0 0 0 0 0 0 0 0 0 0 0 0 0 0 0 0
0 -0 -0 0 0 0 0 0 0 0 0 0 0 0 0 0 0 0 0 0 0 0 0 0 0 0 0 0 0 0 0 0 0 0 0 0 0 0 0 0 0 0 0 0 0
-0 0 0 0 0 -0 0 0 0 0 0 0 0 0 0 0 0 0 0 0 0 0 0 0 0 0 0 0 0 0 0 0 0 0 0 0 0 0 0 0 -0 0 0 0 0
0 0 0 0 0 0 0 0 0 0 0 0 0 0 0 0 0 0 0 0 0 0 0 0 0 0 0 0 0 0 0 0 0 0 0 0 0 0 0 0 -0 0 0 0 0
0 0 0 0 0 0 0 0 0 0 0 0 0 0 -0 -0 0 0 0 0 0 0 0 0 0 0 0 0 0 0 0 0 0 0 0 0 0 0 0 0 0 0 0 -0 0
0 0 0 0 0 0 0 0 0 0 0 0 0 0 0 0 0 0 0 0 0 0 0 0 0 -0 0 0 0 0 0 0 0 0 0 0 0 0 0 0 0 -0 0 0 0
0 0 0 0 0 0 0 0 0 0 0 0 0 0 0 0 0 0 0 0 0 0 0 0 0 0 0 0 0 0 0 0 0 0 0 -0 -0 -0 -0 -0 0 0 -0 0 -0
0 0 0 0 0 0 0 0 0 0 0 0 0 0 0 0 0 0 0 0 0 0 -0 0 0 -0 -0 -0 0 0 -0 0 -0 -0 0 -0 -0 -0 0 -0 0 0 0 0 0
0 0 0 0 0 0 0 0 0 0 0 0 0 -0 0 0 0 0 -0 -0 -0 -0 -0 -0 -0 0 -0 -0 -0 -0 -0 -0 -0 -0 -0 -0 -0 -0 -0 0 -0 0 0 0 0
0 0 0 0 0 0 0 0 0 0 0 0 0 0 0 0 0 0 -0 -0 0 0 -0 -0 -0 -0 -0 -0 -0 0 0 0 0 -0 -0 -0 -0 -0 -0 0 -0 -0 -0 0 0
Wind_Speed_500mb
32 36 36 36 39 31 33 31 32 25 22 18 13 11 12 17 30 35 33 24 28 29 11 14 10 10 12 14 14 13 15 26 39 32 24 12 19 19 10 17 11 12 8 2 6
27 37 38 36 37 38 33 32 30 26 20 18 14 12 15 23 27 32 24 16 20 22 30 14 13 12 15 16 15 25 22 32 21 28 17 22 18 14 13 25 23 18 11 5 12
28 34 37 38 37 41 35 34 30 27 21 19 18 17 19 22 18 19 24 26 24 24 19 17 14 14 18 14 19 21 31 26 16 23 22 28 27 25 26 28 34 27 16 10 5
39 32 36 36 37 38 39 34 29 25 23 19 22 21 21 24 9 13 15 23 33 28 22 20 17 16 13 16 18 18 29 29 21 22 20 25 25 30 38 48 30 26 22 20 21
49 36 32 36 40 37 41 30 27 23 23 18 20 23 22 18 11 8 5 10 26 39 33 25 20 15 15 9 14 23 22 22 24 24 31 37 48 46 47 44 42 39 35 35 35
54 43 34 35 42 39 41 33 26 23 24 18 17 21 20 21 19 27 8 4 15 36 35 28 16 15 7 9 17 4 13 22 22 33 38 39 50 45 55 49 54 60 62 53 47
56 47 43 35 32 42 37 45 28 22 26 21 15 17 18 20 21 26 29 25 15 22 29 32 21 14 13 8 7 12 20 24 34 31 26 24 39 39 64 63 64 55 54 58 59
54 48 44 41 37 37 38 51 32 27 28 22 15 14 11 16 35 19 25 22 20 18 22 27 23 11 7 3 5 9 11 11 4 5 16 21 34 11 9 20 45 57 63 63 63
50 49 47 44 41 24 35 54 40 32 30 23 15 11 8 13 22 25 29 25 27 23 22 22 17 8 8 9 11 16 14 19 18 9 12 23 23 8 21 22 29 39 41 44 55
55 50 49 39 45 35 12 45 39 39 30 23 13 8 17 7 13 25 41 34 23 26 19 12 8 10 15 15 11 10 15 15 20 5 13 30 42 39 48 51 49 51 52 45 44
51 46 48 38 37 52 24 53 43 17 34 18 22 6 13 15 18 23 40 30 24 26 21 16 13 22 28 28 18 4 12 20 17 14 30 33 46 42 51 58 56 59 61 63 63
45 47 43 40 34 41 50 27 65 22 19 29 20 16 20 21 10 21 39 24 26 24 20 11 23 25 13 21 25 29 31 32 28 25 22 35 61 46 48 65 68 67 69 69 67
49 51 41 37 45 52 49 33 67 32 8 23 34 19 16 22 10 31 40 20 24 23 32 16 5 2 25 24 24 31 34 29 31 31 36 41 51 32 16 30 46 63 75 78 75
52 37 45 40 40 23 39 39 52 20 5 17 21 17 30 17 8 25 39 17 9 24 20 19 19 12 13 19 23 29 16 27 27 20 12 4 22 29 27 29 27 35 38 47 56
56 51 50 38 33 31 15 36 46 25 14 21 14 18 32 30 27 17 30 6 14 17 12 6 12 18 24 22 24 13 9 14 18 21 23 36 12 26 8 29 21 27 39 45 43
58 69 56 44 33 38 25 53 46 9 11 14 15 21 29 22 13 18 26 6 9 10 11 14 4 10 13 15 26 5 13 19 22 16 16 42 29 38 39 30 22 24 32 36 33
76 89 65 35 30 28 19 39 9 11 14 18 18 27 31 23 18 21 25 18 13 10 14 10 32 12 17 18 15 22 10 5 8 12 17 13 21 40 25 19 34 44 50 38 33
87 50 13 34 39 23 25 7 8 10 12 10 26 33 17 33 13 22 25 20 20 8 5 8 8 30 22 32 8 35 27 11 14 20 24 11 23 23 40 38 44 35 34 22 27
74 18 15 30 41 27 26 7 5 12 23 26 28 18 12 25 12 14 20 16 22 28 13 11 9 5 14 15 24 11 18 26 35 41 25 31 45 36 46 31 37 30 17 19 27
64 4 15 26 35 35 6 5 3 7 35 32 14 13 18 26 16 19 23 13 17 32 30 5 8 14 7 16 23 28 1 9 11 13 36 27 30 27 25 18 29 24 19 25 32
45 5 24 28 39 21 2 5 8 27 24 7 13 16 16 23 17 24 12 6 17 22 34 14 11 6 7 23 26 19 17 12 11 17 15 27 31 22 18 24 26 15 23 34 30
11 2 37 41 7 4 3 2 13 12 1 9 16 20 26 26 22 19 17 10 18 24 20 24 9 15 28 28 29 33 31 38 17 24 13 19 41 23 26 20 16 26 31 27 28
2 6 15 29 6 8 5 2 6 4 6 6 8 6 11 18 12 17 9 6 24 24 24 22 10 8 9 5 15 20 38 43 36 19 40 20 31 6 10 9 10 22 27 30 35
7 5 8 4 5 15 16 6 9 10 6 14 11 11 14 12 3 13 14 8 26 31 13 23 11 15 20 27 16 15 24 38 37 23 37 41 59 48 39 41 39 54 50 40 31
9 7 9 7 6 17 6 6 15 7 7 8 7 6 10 8 10 8 12 5 9 19 19 14 12 21 40 46 44 46 51 40 44 57 34 55 40 46 30 30 33 34 34 39 24
12 9 11 9 17 20 4 5 5 8 6 5 6 16 13 7 10 7 10 12 11 20 23 12 13 8 32 41 45 46 47 43 36 48 52 56 54 50 44 28 32 39 41 37 42
36 12 2 13 12 15 11 15 11 12 5 9 13 11 13 10 16 19 24 14 9 12 26 10 4 5 17 29 44 18 15 21 14 25 41 40 49 24 16 20 28 41 49 41 33
Wind_Direction_500mb
305 284 279 279 276 287 305 309 295 280 279 269 249 249 243 210 190 210 231 240 234 225 188 181 191 207 198 200 195 198 228 234 229 237 231 216 216 217 213 236 222 208 243 270 264
325 308 277 285 276 267 286 298 301 281 272 256 229 221 189 182 192 225 245 238 227 210 211 184 191 192 202 203 196 212 228 240 246 251 241 229 236 253 234 216 224 224 232 285 284
322 332 294 275 275 262 272 291 301 275 259 242 218 208 195 185 206 240 235 227 215 204 184 184 182 188 207 201 199 213 238 233 236 249 250 249 247 237 242 242 233 232 234 261 294
311 322 310 271 271 263 258 275 292 267 249 235 220 202 203 194 209 197 227 219 216 197 178 165 177 184 208 206 208 237 241 257 255 237 253 247 259 248 244 246 257 254 257 270 271
330 320 303 300 266 265 248 260 280 262 242 229 220 211 192 213 218 185 206 208 202 197 191 178 185 195 217 208 217 235 254 252 253 254 257 265 255 258 264 255 254 256 257 262 265
328 320 305 320 272 260 244 245 270 249 232 220 215 207 201 220 232 227 215 224 200 198 189 184 195 208 218 219 230 266 265 266 267 261 262 260 261 256 255 260 257 255 254 253 253
325 317 296 305 290 260 242 230 245 232 218 208 208 206 214 221 238 225 227 238 183 184 189 193 188 180 177 195 226 272 281 276 262 255 259 262 263 246 255 251 252 253 250 248 244
321 314 306 286 305 255 238 229 223 211 204 203 203 211 237 235 235 201 188 185 189 203 197 198 185 169 198 182 225 253 265 281 86 273 237 220 267 285 266 231 252 254 252 250 247
311 310 306 290 299 276 233 228 200 192 187 191 197 197 246 233 226 206 188 168 155 141 144 149 151 172 159 232 248 216 256 234 281 249 280 216 273 288 246 282 273 262 261 259 251
311 299 308 292 278 265 209 213 182 177 174 163 167 218 229 203 197 191 183 177 160 149 132 156 170 209 217 201 236 230 226 234 251 176 273 271 267 269 267 275 274 271 264 257 254
307 305 307 302 273 257 257 183 153 156 177 191 185 165 139 154 148 168 171 157 161 190 202 191 205 215 221 222 238 290 265 259 256 272 302 272 273 272 274 272 267 262 261 258 255
317 314 306 303 282 276 255 212 166 183 184 196 153 167 151 157 133 160 162 161 170 192 172 179 233 237 239 235 239 249 261 265 280 274 273 287 286 285 274 265 260 258 255 254 254
318 317 309 303 295 283 265 273 187 153 112 176 199 185 188 177 175 178 174 168 183 173 194 203 111 208 211 222 232 242 253 269 276 295 287 282 283 275 268 268 262 256 256 257 253
313 317 319 311 300 299 278 255 190 165 136 164 187 210 190 161 214 177 175 166 166 197 189 237 237 204 186 226 230 263 262 257 259 276 276 56 291 298 291 287 265 265 254 253 255
311 301 301 299 279 273 251 223 182 143 182 137 150 154 168 173 136 170 181 171 174 159 167 152 177 193 221 235 216 237 215 243 254 258 280 251 248 279 264 284 267 271 261 273 269
308 301 290 290 267 247 246 183 153 102 206 155 135 158 155 187 149 133 173 173 173 176 229 252 191 211 223 219 207 112 228 256 261 263 248 250 221 276 275 284 285 277 262 290 284
311 313 287 236 237 225 202 142 118 206 166 150 159 154 158 167 143 154 173 175 169 165 207 236 230 206 195 229 214 220 204 253 233 209 244 288 220 237 278 280 271 279 290 294 299
335 339 226 204 205 196 164 154 161 123 129 159 144 151 165 153 158 164 166 190 213 191 139 230 216 195 196 216 210 209 209 223 252 259 283 266 238 235 247 259 260 267 283 302 320
341 5 121 164 173 175 160 188 115 163 139 139 134 151 126 173 167 151 181 198 198 197 201 182 257 201 215 204 209 185 219 242 270 267 268 255 263 269 260 248 254 266 282 318 345
340 359 129 155 171 150 118 67 309 140 134 141 128 186 162 164 162 177 182 204 209 197 207 183 263 214 182 210 241 225 313 209 207 260 253 247 245 257 273 267 252 220 276 320 332
357 32 135 152 155 99 227 118 112 143 123 142 134 139 155 164 174 180 178 179 209 193 193 183 213 145 167 207 212 199 227 211 273 254 266 276 270 292 276 271 255 243 295 308 319
328 115 143 149 93 156 172 157 129 145 93 101 100 102 149 163 172 190 206 244 183 154 188 204 219 243 242 240 228 236 238 224 232 235 221 262 271 265 266 266 235 279 299 313 316
77 86 154 168 139 117 171 91 90 151 61 96 103 106 161 160 155 193 197 229 177 186 181 172 213 285 252 199 228 242 242 235 236 260 247 257 262 59 246 247 256 267 308 317 312
107 108 73 89 97 119 144 75 105 46 76 73 104 101 124 150 143 178 215 216 196 205 185 176 226 227 256 282 309 251 254 236 220 237 256 237 262 268 273 277 281 287 298 304 305
10 75 135 142 143 143 85 89 126 113 65 92 110 145 148 140 164 217 203 192 187 204 190 211 248 244 257 275 279 269 266 256 225 232 238 260 260 269 283 287 290 299 297 302 313
42 5 16 64 146 167 95 157 127 98 127 150 141 155 176 159 202 195 196 208 219 190 198 218 273 285 279 271 264 271 266 258 241 240 248 258 268 271 281 320 320 304 297 310 301
5 30 318 133 166 173 169 172 169 136 64 99 170 132 217 234 263 265 236 233 229 201 204 202 221 285 273 316 309 274 263 257 241 236 236 247 251 285 299 291 292 296 287 286 296
Wind_Speed_850mb
32 36 36 36 39 31 33 31 32 25 22 18 13 11 12 17 30 35 33 24 28 29 11 14 10 10 12 14 14 13 15 26 39 32 24 12 19 19 10 17 11 12 8 2 6
27 37 38 36 37 38 33 32 30 26 20 18 14 12 15 23 27 32 24 16 20 22 30 14 13 12 15 16 15 25 22 32 21 28 17 22 18 14 13 25 23 18 11 5 12
28 34 37 38 37 41 35 34 30 27 21 19 18 17 19 22 18 19 24 26 24 24 19 17 14 14 18 14 19 21 31 26 16 23 22 28 27 25 26 28 34 27 16 10 5
39 32 36 36 37 38 39 34 29 25 23 19 22 21 21 24 9 13 15 23 33 28 22 20 17 16 13 16 18 18 29 29 21 22 20 25 25 30 38 48 30 26 22 20 21
49 36 32 36 40 37 41 30 27 23 23 18 20 23 22 18 11 8 5 10 26 39 33 25 20 15 15 9 14 23 22 22 24 24 31 37 48 46 47 44 42 39 35 35 35
54 43 34 35 42 39 41 33 26 23 24 18 17 21 20 21 19 27 8 4 15 36 35 28 16 15 7 9 17 4 13 22 22 33 38 39 50 45 55 49 54 60 62 53 47
56 47 43 35 32 42 37 45 28 22 26 21 15 17 18 20 21 26 29 25 15 22 29 32 21 14 13 8 7 12 20 24 34 31 26 24 39 39 64 63 64 55 54 58 59
54 48 44 41 37 37 38 51 32 27 28 22 15 14 11 16 35 19 25 22 20 18 22 27 23 11 7 3 5 9 11 11 4 5 16 21 34 11 9 20 45 57 63 63 63
50 49 47 44 41 24 35 54 40 32 30 23 15 11 8 13 22 25 29 25 27 23 22 22 17 8 8 9 11 16 14 19 18 9 12 23 23 8 21 22 29 39 41 44 55
55 50 49 39 45 35 12 45 39 39 30 23 13 8 17 7 13 25 41 34 23 26 19 12 8 10 15 15 11 10 15 15 20 5 13 30 42 39 48 51 49 51 52 45 44
51 46 48 38 37 52 24 53 43 17 34 18 22 6 13 15 18 23 40 30 24 26 21 16 13 22 28 28 18 4 12 20 17 14 30 33 46 42 51 58 56 59 61 63 63
45 47 43 40 34 41 50 27 65 22 19 29 20 16 20 21 10 21 39 24 26 24 20 11 23 25 13 21 25 29 31 32 28 25 22 35 61 46 48 65 68 67 69 69 67
49 51 41 37 45 52 49 33 67 32 8 23 34 19 16 22 10 31 40 20 24 23 32 16 5 2 25 24 24 31 34 29 31 31 36 41 51 32 16 30 46 63 75 78 75
52 37 45 40 40 23 39 39 52 20 5 17 21 17 30 17 8 25 39 17 9 24 20 19 19 12 13 19 23 29 16 27 27 20 12 4 22 29 27 29 27 35 38 47 56
56 51 50 38 33 31 15 36 46 25 14 21 14 18 32 30 27 17 30 6 14 17 12 6 12 18 24 22 24 13 9 14 18 21 23 36 12 26 8 29 21 27 39 45 43
58 69 56 44 33 38 25 53 46 9 11 14 15 21 29 22 13 18 26 6 9 10 11 14 4 10 13 15 26 5 13 19 22 16 16 42 29 38 39 30 22 24 32 36 33
76 89 65 35 30 28 19 39 9 11 14 18 18 27 31 23 18 21 25 18 13 10 14 10 32 12 17 18 15 22 10 5 8 12 17 13 21 40 25 19 34 44 50 38 33
87 50 13 34 39 23 25 7 8 10 12 10 26 33 17 33 13 22 25 20 20 8 5 8 8 30 22 32 8 35 27 11 14 20 24 11 23 23 40 38 44 35 34 22 27
74 18 15 30 41 27 26 7 5 12 23 26 28 18 12 25 12 14 20 16 22 28 13 11 9 5 14 15 24 11 18 26 35 41 25 31 45 36 46 31 37 30 17 19 27
64 4 15 26 35 35 6 5 3 7 35 32 14 13 18 26 16 19 23 13 17 32 30 5 8 14 7 16 23 28 1 9 11 13 36 27 30 27 25 18 29 24 19 25 32
45 5 24 28 39 21 2 5 8 27 24 7 13 16 16 23 17 24 12 6 17 22 34 14 11 6 7 23 26 19 17 12 11 17 15 27 31 22 18 24 26 15 23 34 30
11 2 37 41 7 4 3 2 13 12 1 9 16 20 26 26 22 19 17 10 18 24 20 24 9 15 28 28 29 33 31 38 17 24 13 19 41 23 26 20 16 26 31 27 28
2 6 15 29 6 8 5 2 6 4 6 6 8 6 11 18 12 17 9 6 24 24 24 22 10 8 9 5 15 20 38 43 36 19 40 20 31 6 10 9 10 22 27 30 35
7 5 8 4 5 15 16 6 9 10 6 14 11 11 14 12 3 13 14 8 26 31 13 23 11 15 20 27 16 15 24 38 37 23 37 41 59 48 39 41 39 54 50 40 31
9 7 9 7 6 17 6 6 15 7 7 8 7 6 10 8 10 8 12 5 9 19 19 14 12 21 40 46 44 46 51 40 44 57 34 55 40 46 30 30 33 34 34 39 24
12 9 11 9 17 20 4 5 5 8 6 5 6 16 13 7 10 7 10 12 11 20 23 12 13 8 32 41 45 46 47 43 36 48 52 56 54 50 44 28 32 39 41 37 42
36 12 2 13 12 15 11 15 11 12 5 9 13 11 13 10 16 19 24 14 9 12 26 10 4 5 17 29 44 18 15 21 14 25 41 40 49 24 16 20 28 41 49 41 33
Wind_Direction_850mb
305 284 279 279 276 287 305 309 295 280 279 269 249 249 243 210 190 210 231 240 234 225 188 181 191 207 198 200 195 198 228 234 229 237 231 216 216 217 213 236 222 208 243 270 264
325 308 277 285 276 267 286 298 301 281 272 256 229 221 189 182 192 225 245 238 227 210 211 184 191 192 202 203 196 212 228 240 246 251 241 229 236 253 234 216 224 224 232 285 284
322 332 294 275 275 262 272 291 301 275 259 242 218 208 195 185 206 240 235 227 215 204 184 184 182 188 207 201 199 213 238 233 236 249 250 249 247 237 242 242 233 232 234 261 294
311 322 310 271 271 263 258 275 292 267 249 235 220 202 203 194 209 197 227 219 216 197 178 165 177 184 208 206 208 237 241 257 255 237 253 247 259 248 244 246 257 254 257 270 271
330 320 303 300 266 265 248 260 280 262 242 229 220 211 192 213 218 185 206 208 202 197 191 178 185 195 217 208 217 235 254 252 253 254 257 265 255 258 264 255 254 256 257 262 265
328 320 305 320 272 260 244 245 270 249 232 220 215 207 201 220 232 227 215 224 200 198 189 184 195 208 218 219 230 266 265 266 267 261 262 260 261 256 255 260 257 255 254 253 253
325 317 296 305 290 260 242 230 245 232 218 208 208 206 214 221 238 225 227 238 183 184 189 193 188 180 177 195 226 272 281 276 262 255 259 262 263 246 255 251 252 253 250 248 244
321 314 306 286 305 255 238 229 223 211 204 203 203 211 237 235 235 201 188 185 189 203 197 198 185 169 198 182 225 253 265 281 86 273 237 220 267 285 266 231 252 254 252 250 247
311 310 306 290 299 276 233 228 200 192 187 191 197 197 246 233 226 206 188 168 155 141 144 149 151 172 159 232 248 216 256 234 281 249 280 216 273 288 246 282 273 262 261 259 251
311 299 308 292 278 265 209 213 182 177 174 163 167 218 229 203 197 191 183 177 160 149 132 156 170 209 217 201 236 230 226 234 251 176 273 271 267 269 267 275 274 271 264 257 254
307 305 307 302 273 257 257 183 153 156 177 191 185 165 139 154 148 168 171 157 161 190 202 191 205 215 221 222 238 290 265 259 256 272 302 272 273 272 274 272 267 262 261 258 255
317 314 306 303 282 276 255 212 166 183 184 196 153 167 151 157 133 160 162 161 170 192 172 179 233 237 239 235 239 249 261 265 280 274 273 287 286 285 274 265 260 258 255 254 254
318 317 309 303 295 283 265 273 187 153 112 176 199 185 188 177 175 178 174 168 183 173 194 203 111 208 211 222 232 242 253 269 276 295 287 282 283 275 268 268 262 256 256 257 253
313 317 319 311 300 299 278 255 190 165 136 164 187 210 190 161 214 177 175 166 166 197 189 237 237 204 186 226 230 263 262 257 259 276 276 56 291 298 291 287 265 265 254 253 255
311 301 301 299 279 273 251 223 182 143 182 137 150 154 168 173 136 170 181 171 174 159 167 152 177 193 221 235 216 237 215 243 254 258 280 251 248 279 264 284 267 271 261 273 269
308 301 290 290 267 247 246 183 153 102 206 155 135 158 155 187 149 133 173 173 173 176 229 252 191 211 223 219 207 112 228 256 261 263 248 250 221 276 275 284 285 277 262 290 284
311 313 287 236 237 225 202 142 118 206 166 150 159 154 158 167 143 154 173 175 169 165 207 236 230 206 195 229 214 220 204 253 233 209 244 288 220 237 278 280 271 279 290 294 299
335 339 226 204 205 196 164 154 161 123 129 159 144 151 165 153 158 164 166 190 213 191 139 230 216 195 196 216 210 209 209 223 252 259 283 266 238 235 247 259 260 267 283 302 320
341 5 121 164 173 175 160 188 115 163 139 139 134 151 126 173 167 151 181 198 198 197 201 182 257 201 215 204 209 185 219 242 270 267 268 255 263 269 260 248 254 266 282 318 345
340 359 129 155 171 150 118 67 309 140 134 141 128 186 162 164 162 177 182 204 209 197 207 183 263 214 182 210 241 225 313 209 207 260 253 247 245 257 273 267 252 220 276 320 332
357 32 135 152 155 99 227 118 112 143 123 142 134 139 155 164 174 180 178 179 209 193 193 183 213 145 167 207 212 199 227 211 273 254 266 276 270 292 276 271 255 243 295 308 319
328 115 143 149 93 156 172 157 129 145 93 101 100 102 149 163 172 190 206 244 183 154 188 204 219 243 242 240 228 236 238 224 232 235 221 262 271 265 266 266 235 279 299 313 316
77 86 154 168 139 117 171 91 90 151 61 96 103 106 161 160 155 193 197 229 177 186 181 172 213 285 252 199 228 242 242 235 236 260 247 257 262 59 246 247 256 267 308 317 312
107 108 73 89 97 119 144 75 105 46 76 73 104 101 124 150 143 178 215 216 196 205 185 176 226 227 256 282 309 251 254 236 220 237 256 237 262 268 273 277 281 287 298 304 305
10 75 135 142 143 143 85 89 126 113 65 92 110 145 148 140 164 217 203 192 187 204 190 211 248 244 257 275 279 269 266 256 225 232 238 260 260 269 283 287 290 299 297 302 313
42 5 16 64 146 167 95 157 127 98 127 150 141 155 176 159 202 195 196 208 219 190 198 218 273 285 279 271 264 271 266 258 241 240 248 258 268 271 281 320 320 304 297 310 301
5 30 318 133 166 173 169 172 169 136 64 99 170 132 217 234 263 265 236 233 229 201 204 202 221 285 273 316 309 274 263 257 241 236 236 247 251 285 299 291 292 296 287 286 296